TimeCDT,TemperatureF,Dew PointF,Humidity,Sea Level PressureIn,VisibilityMPH,Wind Direction,Wind SpeedMPH,Gust SpeedMPH,PrecipitationIn,Events,Conditions,WindDirDegrees,DateUTC
12:15 AM,30.2,30.2,100,30.28,10.0,North,13.8,-,N/A,,Clear,360,2012-10-06 05:15:00
12:34 AM,30.2,30.2,100,30.29,10.0,North,13.8,-,N/A,,Clear,360,2012-10-06 05:34:00
12:55 AM,32.0,32.0,100,30.29,10.0,North,12.7,-,N/A,,Clear,350,2012-10-06 05:55:00
1:14 AM,30.2,30.2,100,30.29,10.0,North,12.7,-,N/A,,Clear,360,2012-10-06 06:14:00
1:55 AM,30.2,30.2,100,30.30,10.0,North,11.5,-,N/A,,Clear,360,2012-10-06 06:55:00
2:14 AM,30.2,30.2,100,30.30,10.0,North,10.4,-,N/A,,Clear,350,2012-10-06 07:14:00
2:35 AM,30.2,28.4,93,30.30,10.0,North,11.5,-,N/A,,Clear,350,2012-10-06 07:35:00
2:55 AM,30.2,28.4,93,30.31,10.0,North,12.7,-,N/A,,Clear,350,2012-10-06 07:55:00
3:14 AM,30.2,28.4,93,30.31,10.0,North,12.7,-,N/A,,Clear,350,2012-10-06 08:14:00
3:35 AM,30.2,28.4,93,30.31,10.0,North,10.4,-,N/A,,Scattered Clouds,360,2012-10-06 08:35:00
3:55 AM,30.2,28.4,93,30.31,10.0,North,10.4,16.1,N/A,,Mostly Cloudy,360,2012-10-06 08:55:00
4:35 AM,30.2,28.4,93,30.31,10.0,NNW,9.2,-,N/A,,Clear,340,2012-10-06 09:35:00
4:55 AM,28.4,28.4,100,30.31,10.0,NNW,8.1,-,N/A,,Clear,330,2012-10-06 09:55:00
5:14 AM,28.4,28.4,100,30.32,10.0,NNW,5.8,-,N/A,,Clear,330,2012-10-06 10:14:00
5:35 AM,28.4,28.4,100,30.32,10.0,NNW,9.2,-,N/A,,Clear,340,2012-10-06 10:35:00
5:55 AM,28.4,26.6,93,30.32,10.0,NNW,6.9,-,N/A,,Clear,340,2012-10-06 10:55:00
6:14 AM,26.6,26.6,100,30.32,10.0,NW,5.8,-,N/A,,Clear,320,2012-10-06 11:14:00
6:35 AM,26.6,26.6,100,30.33,10.0,NW,5.8,-,N/A,,Clear,320,2012-10-06 11:35:00
6:54 AM,26.6,26.6,100,30.34,10.0,NNW,4.6,-,N/A,,Clear,340,2012-10-06 11:54:00
7:14 AM,26.6,24.8,93,30.34,10.0,NNW,3.5,-,N/A,,Clear,340,2012-10-06 12:14:00
7:35 AM,26.6,24.8,93,30.34,10.0,NW,5.8,-,N/A,,Clear,320,2012-10-06 12:35:00
7:54 AM,24.8,24.8,100,30.34,10.0,NNW,4.6,-,N/A,,Clear,330,2012-10-06 12:54:00
8:15 AM,26.6,26.6,100,30.34,10.0,NNW,3.5,-,N/A,,Clear,340,2012-10-06 13:15:00
8:35 AM,28.4,26.6,93,30.35,10.0,NNW,3.5,-,N/A,,Clear,330,2012-10-06 13:35:00
9:15 AM,30.2,28.4,93,30.35,10.0,NW,5.8,-,N/A,,Clear,310,2012-10-06 14:15:00
9:35 AM,30.2,30.2,100,30.35,10.0,NW,8.1,-,N/A,,Clear,310,2012-10-06 14:35:00
9:54 AM,32.0,30.2,93,30.36,10.0,NW,9.2,-,N/A,,Clear,310,2012-10-06 14:54:00
10:15 AM,33.8,32.0,93,30.36,10.0,NW,9.2,-,N/A,,Clear,310,2012-10-06 15:15:00
10:35 AM,33.8,33.8,100,30.37,10.0,NW,9.2,-,N/A,,Clear,310,2012-10-06 15:35:00
10:54 AM,35.6,33.8,93,30.37,10.0,NW,10.4,-,N/A,,Clear,310,2012-10-06 15:54:00
11:15 AM,37.4,33.8,87,30.37,10.0,WNW,10.4,-,N/A,,Clear,300,2012-10-06 16:15:00
11:35 AM,39.2,33.8,81,30.36,10.0,NW,11.5,-,N/A,,Clear,310,2012-10-06 16:35:00
11:54 AM,39.2,32.0,75,30.36,10.0,NW,13.8,-,N/A,,Clear,310,2012-10-06 16:54:00
12:15 PM,39.2,30.2,70,30.35,10.0,NW,10.4,-,N/A,,Clear,310,2012-10-06 17:15:00
12:35 PM,39.2,32.0,75,30.35,10.0,NW,11.5,-,N/A,,Scattered Clouds,310,2012-10-06 17:35:00
12:54 PM,41.0,33.8,76,30.35,10.0,NW,10.4,-,N/A,,Mostly Cloudy,310,2012-10-06 17:54:00
1:15 PM,42.8,30.2,61,30.34,10.0,NW,6.9,-,N/A,,Scattered Clouds,310,2012-10-06 18:15:00
1:34 PM,41.0,30.2,65,30.33,10.0,NW,6.9,-,N/A,,Scattered Clouds,310,2012-10-06 18:34:00
1:55 PM,41.0,30.2,65,30.32,10.0,NW,6.9,-,N/A,,Scattered Clouds,310,2012-10-06 18:55:00
2:15 PM,41.0,30.2,65,30.31,10.0,NW,9.2,-,N/A,,Scattered Clouds,310,2012-10-06 19:15:00
2:34 PM,42.8,30.2,61,30.30,10.0,NW,9.2,-,N/A,,Scattered Clouds,320,2012-10-06 19:34:00
2:55 PM,42.8,28.4,57,30.29,10.0,WNW,8.1,-,N/A,,Scattered Clouds,300,2012-10-06 19:55:00
3:15 PM,42.8,28.4,57,30.28,10.0,West,9.2,-,N/A,,Scattered Clouds,280,2012-10-06 20:15:00
3:34 PM,42.8,30.2,61,30.28,10.0,WNW,8.1,-,N/A,,Clear,290,2012-10-06 20:34:00
3:55 PM,44.6,28.4,53,30.27,10.0,WNW,6.9,-,N/A,,Scattered Clouds,300,2012-10-06 20:55:00
4:15 PM,44.6,28.4,53,30.26,10.0,NW,8.1,-,N/A,,Scattered Clouds,310,2012-10-06 21:15:00
4:34 PM,44.6,28.4,53,30.25,10.0,West,10.4,-,N/A,,Scattered Clouds,260,2012-10-06 21:34:00
4:55 PM,44.6,28.4,53,30.24,10.0,West,10.4,-,N/A,,Clear,260,2012-10-06 21:55:00
5:14 PM,44.6,28.4,53,30.24,10.0,West,8.1,-,N/A,,Clear,270,2012-10-06 22:14:00
5:34 PM,44.6,30.2,57,30.23,10.0,WSW,9.2,-,N/A,,Clear,240,2012-10-06 22:34:00
5:55 PM,44.6,30.2,57,30.22,10.0,SW,5.8,-,N/A,,Scattered Clouds,230,2012-10-06 22:55:00
6:14 PM,44.6,30.2,57,30.22,10.0,West,9.2,-,N/A,,Clear,260,2012-10-06 23:14:00
6:34 PM,42.8,30.2,61,30.21,10.0,West,8.1,-,N/A,,Clear,260,2012-10-06 23:34:00
6:55 PM,41.0,30.2,65,30.21,10.0,WSW,6.9,-,N/A,,Clear,250,2012-10-06 23:55:00
7:14 PM,39.2,30.2,70,30.20,10.0,WSW,5.8,-,N/A,,Clear,250,2012-10-07 00:14:00
7:34 PM,37.4,30.2,75,30.20,10.0,WSW,5.8,-,N/A,,Clear,240,2012-10-07 00:34:00
7:55 PM,37.4,30.2,75,30.20,10.0,SW,4.6,-,N/A,,Clear,230,2012-10-07 00:55:00
8:14 PM,35.6,30.2,81,30.20,10.0,SSW,5.8,-,N/A,,Clear,210,2012-10-07 01:14:00
8:34 PM,35.6,30.2,81,30.19,10.0,SW,6.9,-,N/A,,Clear,220,2012-10-07 01:34:00
8:55 PM,33.8,30.2,87,30.18,10.0,SW,6.9,-,N/A,,Clear,220,2012-10-07 01:55:00
9:14 PM,33.8,28.4,81,30.18,10.0,SW,6.9,-,N/A,,Clear,220,2012-10-07 02:14:00
9:35 PM,33.8,28.4,81,30.17,10.0,SW,6.9,-,N/A,,Clear,220,2012-10-07 02:35:00
9:54 PM,33.8,28.4,81,30.17,10.0,SW,6.9,-,N/A,,Clear,220,2012-10-07 02:54:00
10:14 PM,33.8,28.4,81,30.16,10.0,SW,6.9,-,N/A,,Clear,220,2012-10-07 03:14:00
10:35 PM,33.8,28.4,81,30.16,10.0,SW,8.1,-,N/A,,Clear,220,2012-10-07 03:35:00
10:54 PM,33.8,28.4,81,30.15,10.0,SW,8.1,-,N/A,,Clear,220,2012-10-07 03:54:00
11:14 PM,33.8,28.4,81,30.14,10.0,SW,9.2,-,N/A,,Clear,220,2012-10-07 04:14:00
11:35 PM,33.8,28.4,81,30.13,10.0,SW,10.4,-,N/A,,Clear,220,2012-10-07 04:35:00
11:54 PM,33.8,26.6,75,30.12,10.0,SW,10.4,-,N/A,,Clear,220,2012-10-07 04:54:00